Latest Coastal Weather Observations for Troughton Island

IDD60701

Issued at 5:21 pm CST Friday 18 September 2020 (issued every 10 minutes, with the page automatically refreshed every 10 minutes)

About coastal observations | Map of coastal stations | Coastal observations for NT | Marine services | Other Formats
Station Details ID: 001007 Name: TROUGHTON ISLAND Lat: -13.75 Lon: 126.15 Height: 6.0 m
Data from the previous 72 hours. | See also: Recent months at Troughton Island
Date/Time
CST
Wind Sea
Height
m
Swell Vis
km
Cloud Weather Temp
°C
Press
hPa
Rain since
9am
mm
Dir  Spd
kts
Gust
kts
Height
m
Period
s
Dir
18/05:00pm N 11 15 - - - - - - - 29.3 1011.0 0.0
18/04:30pm N 10 13 - - - - - - - 30.1 1011.1 0.0
18/04:00pm N 10 12 - - - - - - - 30.4 1011.4 0.0
18/03:30pm NW 8 10 - - - - - - - 30.0 1011.5 0.0
18/03:00pm NW 7 9 - - - - - - - 29.5 1011.7 0.0
18/02:30pm NW 8 9 - - - - - - - 29.9 1012.0 0.0
18/02:00pm NW 8 9 - - - - - - - 29.9 1012.4 0.0
18/01:30pm WSW 7 9 - - - - - - - 30.2 1012.8 0.0
18/01:00pm WNW 7 9 - - - - - - - 29.6 1013.1 0.0
18/12:30pm WNW 7 8 - - - - - - - 29.8 1013.6 0.0
18/12:00pm W 6 8 - - - - - - - 29.9 1013.9 0.0
18/11:30am W 5 7 - - - - - - - 30.1 1014.3 0.0
18/11:00am WSW 5 6 - - - - - - - 29.4 1014.6 0.0
18/10:30am WSW 5 6 - - - - - - - 29.3 1014.7 0.0
18/10:00am SW 5 6 - - - - - - - 29.4 1014.6 0.0
18/09:30am SW 5 6 - - - - - - - 28.8 1014.4 0.0
18/09:00am S 6 8 - - - - - - - 28.8 1014.2 0.0
18/08:30am SW 7 8 - - - - - - - 28.1 1014.0 0.0
18/08:00am SW 9 11 - - - - - - - 27.5 1013.6 0.0
18/07:30am S 8 11 - - - - - - - 26.9 1013.2 0.0
18/07:00am SW 9 11 - - - - - - - 26.5 1013.0 0.0
18/06:30am SW 10 12 - - - - - - - 26.4 1012.7 0.0
18/06:00am SW 9 11 - - - - - - - 26.5 1012.4 0.0
18/05:30am WSW 9 11 - - - - - - - 26.4 1012.2 0.0
18/05:00am WSW 9 11 - - - - - - - 26.5 1012.1 0.0
18/04:30am WSW 9 11 - - - - - - - 26.5 1012.2 0.0
18/04:00am SW 9 11 - - - - - - - 26.5 1012.2 0.0
18/03:30am SW 9 10 - - - - - - - 26.6 1012.3 0.0
18/03:00am WSW 8 9 - - - - - - - 26.6 1012.5 0.0
18/02:30am WSW 7 8 - - - - - - - 26.7 1012.7 0.0
18/02:00am W 7 8 - - - - - - - 26.7 1012.9 0.0
18/01:30am WSW 6 7 - - - - - - - 26.6 1013.2 0.0
18/01:00am W 7 7 - - - - - - - 26.7 1013.5 0.0
18/12:30am W 7 8 - - - - - - - 26.8 1013.6 0.0
18/12:00am W 7 9 - - - - - - - 26.8 1013.7 0.0
 
Date/Time
CST
Wind Sea
Height
m
Swell Vis
km
Cloud Weather Temp
°C
Press
hPa
Rain since
9am
mm
Dir  Spd
kts
Gust
kts
Height
m
Period
s
Dir
17/11:30pm W 7 8 - - - - - - - 26.9 1013.7 0.0
17/11:00pm WNW 7 8 - - - - - - - 26.9 1013.8 0.0
17/10:30pm NW 7 8 - - - - - - - 26.7 1013.7 0.0
17/10:00pm NW 6 7 - - - - - - - 26.6 1013.6 0.0
17/09:30pm NW 7 7 - - - - - - - 26.6 1013.5 0.0
17/09:00pm NW 6 7 - - - - - - - 26.6 1013.2 0.0
17/08:30pm NW 7 8 - - - - - - - 26.9 1013.0 0.0
17/08:00pm NW 9 11 - - - - - - - 27.1 1012.7 0.0
17/07:30pm NNW 10 13 - - - - - - - 27.3 1012.3 0.0
17/07:00pm NNW 11 13 - - - - - - - 27.6 1011.9 0.0
17/06:30pm NNW 10 11 - - - - - - - 28.2 1011.8 0.0
17/06:00pm NNW 8 10 - - - - - - - 29.0 1011.5 0.0
17/05:30pm NW 7 9 - - - - - - - 29.4 1011.3 0.0
17/05:00pm NW 7 9 - - - - - - - 29.5 1011.2 0.0
17/04:30pm NNW 9 11 - - - - - - - 29.8 1011.2 0.0
17/04:00pm NNW 9 11 - - - - - - - 30.3 1011.4 0.0
17/03:30pm NW 9 11 - - - - - - - 30.2 1011.8 0.0
17/03:00pm NW 8 10 - - - - - - - 30.1 1012.2 0.0
17/02:30pm NW 8 9 - - - - - - - 29.6 1012.4 0.0
17/02:00pm WNW 7 9 - - - - - - - 29.7 1012.8 0.0
17/01:30pm WNW 7 8 - - - - - - - 29.8 1013.4 0.0
17/01:00pm W 7 8 - - - - - - - 30.0 1013.9 0.0
17/12:30pm SW 6 8 - - - - - - - 30.0 1014.3 0.0
17/12:00pm WSW 6 8 - - - - - - - 29.7 1014.7 0.0
17/11:30am SSW 6 8 - - - - - - - 30.2 1015.1 0.0
17/11:00am SSW 6 8 - - - - - - - 29.5 1015.1 0.0
17/10:30am SSW 6 7 - - - - - - - 29.5 1015.2 0.0
17/10:00am SSW 7 8 - - - - - - - 29.4 1015.1 0.0
17/09:30am W 5 7 - - - - - - - 28.9 1014.9 0.0
17/09:00am WNW 5 6 - - - - - - - 28.4 1014.7 0.0
17/08:30am WNW 5 6 - - - - - - - 28.0 1014.5 0.0
17/08:00am SSE 4 5 - - - - - - - 27.3 1014.1 0.0
17/07:30am W 5 5 - - - - - - - 26.3 1013.6 0.0
17/07:00am WSW 4 5 - - - - - - - 25.8 1013.1 0.0
17/06:30am WSW 4 6 - - - - - - - 26.0 1012.6 0.0
17/06:00am SW 6 7 - - - - - - - 26.2 1012.3 0.0
17/05:30am WSW 7 9 - - - - - - - 26.3 1012.0 0.0
17/05:00am WSW 7 9 - - - - - - - 26.3 1011.9 0.0
17/04:30am WSW 7 9 - - - - - - - 26.4 1011.8 0.0
17/04:00am WSW 8 9 - - - - - - - 26.4 1012.0 0.0
17/03:30am WSW 9 10 - - - - - - - 26.4 1012.1 0.0
17/03:00am WSW 8 10 - - - - - - - 26.4 1012.2 0.0
17/02:30am WSW 8 9 - - - - - - - 26.5 1012.5 0.0
17/02:00am WSW 7 8 - - - - - - - 26.5 1012.7 0.0
17/01:30am WSW 6 8 - - - - - - - 26.5 1013.1 0.0
17/01:00am W 6 7 - - - - - - - 26.6 1013.5 0.0
17/12:30am WNW 6 7 - - - - - - - 26.7 1013.8 0.0
17/12:00am NW 6 8 - - - - - - - 26.6 1014.1 0.0
 
Date/Time
CST
Wind Sea
Height
m
Swell Vis
km
Cloud Weather Temp
°C
Press
hPa
Rain since
9am
mm
Dir  Spd
kts
Gust
kts
Height
m
Period
s
Dir
16/11:30pm NW 6 7 - - - - - - - 26.3 1014.2 0.0
16/11:00pm NNW 5 6 - - - - - - - 26.5 1014.3 0.0
16/10:30pm NNW 6 7 - - - - - - - 26.8 1014.3 0.0
16/10:00pm NNW 6 7 - - - - - - - 26.9 1014.4 0.0
16/09:30pm NNW 7 8 - - - - - - - 26.9 1014.0 0.0
16/09:00pm N 6 8 - - - - - - - 27.2 1013.7 0.0
16/08:30pm N 6 9 - - - - - - - 27.4 1013.4 0.0
16/08:00pm NNW 8 9 - - - - - - - 27.4 1013.1 0.0
16/07:30pm NNW 7 9 - - - - - - - 27.4 1012.6 0.0
16/07:00pm NNW 9 10 - - - - - - - 27.8 1012.2 0.0
16/06:30pm NNW 9 11 - - - - - - - 28.7 1011.8 0.0
16/06:00pm NNW 9 12 - - - - - - - 29.4 1011.6 0.0
16/05:30pm NW 8 10 - - - - - - - 29.7 1011.7 0.0
16/05:00pm NW 8 10 - - - - - - - 29.8 1011.7 0.0
16/04:30pm NW 8 10 - - - - - - - 30.1 1011.6 0.0
16/04:00pm NW 7 8 - - - - - - - 30.3 1011.7 0.0
16/03:30pm NW 7 10 - - - - - - - 29.8 1011.9 0.0
16/03:00pm W 7 8 - - - - - - - 29.7 1012.4 0.0
16/02:30pm W 7 8 - - - - - - - 30.1 1012.8 0.0
16/02:00pm W 7 8 - - - - - - - 30.5 1013.2 0.0
16/01:30pm W 6 7 - - - - - - - 30.3 1013.8 0.0
16/01:00pm W 6 8 - - - - - - - 29.8 1014.1 0.0
16/12:30pm WSW 7 8 - - - - - - - 30.1 1014.6 0.0
16/12:00pm WSW 6 8 - - - - - - - 30.2 1015.0 0.0
16/11:30am S 6 7 - - - - - - - 30.0 1015.3 0.0
16/11:00am S 6 8 - - - - - - - 29.6 1015.4 0.0
16/10:30am SSW 6 8 - - - - - - - 29.2 1015.4 0.0
16/10:00am SW 6 7 - - - - - - - 29.5 1015.5 0.0
16/09:30am WSW 8 9 - - - - - - - 28.9 1015.3 0.0
16/09:00am SSW 7 9 - - - - - - - 28.8 1015.0 0.0
16/08:30am SSW 7 9 - - - - - - - 28.4 1014.7 0.0
16/08:00am SSW 7 9 - - - - - - - 27.6 1014.2 0.0
16/07:30am W 8 9 - - - - - - - 26.7 1013.9 0.0
16/07:00am W 7 8 - - - - - - - 26.2 1013.4 0.0
16/06:30am WNW 7 9 - - - - - - - 26.4 1013.0 0.0
16/06:00am W 8 9 - - - - - - - 26.4 1012.8 0.0
16/05:30am W 7 9 - - - - - - - 26.5 1012.7 0.0
16/05:00am W 7 8 - - - - - - - 26.4 1012.5 0.0
16/04:30am WSW 8 10 - - - - - - - 26.7 1012.6 0.0
16/04:00am W 8 10 - - - - - - - 26.8 1012.7 0.0
16/03:30am W 8 10 - - - - - - - 26.8 1012.5 0.0
16/03:00am WNW 8 9 - - - - - - - 26.8 1012.7 0.0
16/02:30am WNW 8 10 - - - - - - - 26.9 1013.0 0.0
16/02:00am W 8 10 - - - - - - - 27.0 1013.2 0.0
16/01:30am W 8 10 - - - - - - - 26.9 1013.7 0.0
16/01:00am W 9 10 - - - - - - - 26.9 1013.6 0.0
16/12:30am W 9 10 - - - - - - - 26.9 1013.8 0.0
16/12:00am WSW 9 10 - - - - - - - 26.9 1014.1 0.0
 
Date/Time
CST
Wind Sea
Height
m
Swell Vis
km
Cloud Weather Temp
°C
Press
hPa
Rain since
9am
mm
Dir  Spd
kts
Gust
kts
Height
m
Period
s
Dir
15/11:30pm W 7 9 - - - - - - - 26.9 1014.0 0.0
15/11:00pm WNW 6 7 - - - - - - - 26.7 1014.1 0.0
15/10:30pm NW 6 7 - - - - - - - 26.6 1014.1 0.0
15/10:00pm WNW 7 8 - - - - - - - 26.9 1014.0 0.0
15/09:30pm NNW 6 7 - - - - - - - 26.6 1013.7 0.0
15/09:00pm NNW 7 8 - - - - - - - 26.5 1013.4 0.0
15/08:30pm NNW 6 7 - - - - - - - 26.7 1013.2 0.0
15/08:00pm N 6 8 - - - - - - - 27.7 1012.9 0.0
15/07:30pm N 7 8 - - - - - - - 27.8 1012.4 0.0
15/07:00pm N 8 10 - - - - - - - 28.0 1012.0 0.0

Other formats

Comma delimited format used in spreadsheet applications
http://www.bom.gov.au/fwo/IDD60701/IDD60701.94102.axf

JavaScript Object Notation format (JSON) in row-major order
http://www.bom.gov.au/fwo/IDD60701/IDD60701.94102.json

Data quality

Most of these data are generated automatically and are frequently updated. Quality checks on data are not normally performed. It is possible for incorrect values to appear. Refer to information at About Latest Weather Observations and please check the disclaimer before using these data.